World > North America > United States > Illinois > Eddyville  

Eddyville, IL Hourly Weather Updates

Feedback E-mail the Weather

Quick Clicks

Eddyville, IL Weather Maps

°F °C°F °C
Eddyville Weather Map
UTC Time: 4/19/2024, 15:35
Your Time:

Eddyville, IL Regional Weather

Expires:202404191600;;019484
ASUS43 KLOT 191510
RWRIL 

ILLINOIS REGIONAL WEATHER ROUNDUP
NATIONAL WEATHER SERVICE CHICAGO/ROMEOVILLE IL
1000 AM CDT FRI APR 19 2024

NOTE: "FAIR" INDICATES FEW OR NO CLOUDS BELOW 12,000 FEET WITH NO
SIGNIFICANT WEATHER AND/OR OBSTRUCTIONS TO VISIBILITY.

* THESE STATIONS ARE NOT UNDER NWS QUALITY CONTROL. THEY ALSO MAY NOT
  REPORT WEATHER SUCH AS PRECIPITATION OR FOG.


ILZ064>066-069>071-074>076-080>082-084>086-088>090-092>094-191600-
SOUTH-CENTRAL ILLINOIS
  
CITY           SKY/WX    TMP DP  RH WIND       PRES   REMARKS
CARBONDALE     SUNNY     54  40  59 N16G26    30.20R TC  12           
CAIRO*         CLOUDY    55  45  69 NE13G22   30.18R TC  13           
MARION         MOSUNNY   54  45  71 N16       30.19R TC  12           
MT. VERNON       N/A     52  36  54 NE14      30.19R TC  11           
CENTRALIA*     MOSUNNY   52  36  54 N17       30.20F TC  11           
SALEM*         MOSUNNY   52  36  54 N16G24    30.21S TC  11           
METROPOLIS*    CLOUDY    54  46  74 N9G16     30.17R TC  12           
$$


SKY/WX - Weather  TMP - Temperature  DP - Dew Point  RH - Humidity
WIND - Wind Direction/Speed PRES - Barometric Pressure VSB - Visibility
WCI - Wind Chill Index E13G22 Wind - East Wind 13 mph/Gusts of 22 mph

Trending Headlines

Trending Entertainment Headlines

Eddyville Radar Loop

Use the map search tool if you want to place a location marker on the radar map...

Eddyville Quick Facts

National Two Day Weather Forecast


E-mail the Eddyville Weather Forecast

Voice your opinion or tell us about page issues...